• In Netherlands
  • List of Countries
  • For 7 days
  • Water Temperature
  • Satellite Maps
  • Weather Map
  • Weather Widgets
  • user-avatar
    Login

    Hourly Weather Kapan

    Today, 19 August, Saturday

    Time Temperature Precipitation Wind Pressure Humidity
    00:00 +24°C° 0.1 mm 2 mps 685 mmHg 62%
    01:00 +23°C° 0 mm 2 mps 685 mmHg 65%
    02:00 +23°C° 0 mm 2 mps 685 mmHg 67%
    03:00 +22°C° 0 mm 1 mps 685 mmHg 69%
    04:00 +22°C° 0 mm 1 mps 685 mmHg 70%
    05:00 +22°C° 0 mm 1 mps 685 mmHg 71%
    06:00 +23°C° 0 mm 1 mps 686 mmHg 72%
    07:00 +25°C° 0 mm 2 mps 686 mmHg 63%
    08:00 +26°C° 0 mm 2 mps 686 mmHg 55%
    09:00 +28°C° 0 mm 2 mps 687 mmHg 46%
    10:00 +30°C° 0 mm 3 mps 687 mmHg 42%
    11:00 +31°C° 0 mm 3 mps 687 mmHg 38%
    12:00 +33°C° 0 mm 4 mps 687 mmHg 34%
    13:00 +34°C° 0 mm 4 mps 686 mmHg 33%
    14:00 +34°C° 0 mm 4 mps 686 mmHg 32%
    15:00 +34°C° 0 mm 4 mps 686 mmHg 31%
    16:00 +33°C° 0 mm 4 mps 686 mmHg 33%
    17:00 +32°C° 0 mm 4 mps 685 mmHg 35%
    18:00 +30°C° 0 mm 4 mps 685 mmHg 37%
    19:00 +28°C° 0 mm 3 mps 685 mmHg 40%
    20:00 +26°C° 0 mm 3 mps 685 mmHg 43%
    21:00 +25°C° 0 mm 2 mps 686 mmHg 47%
    22:00 +24°C° 0 mm 2 mps 686 mmHg 48%
    23:00 +24°C° 0 mm 2 mps 686 mmHg 49%

    Tomorrow, 20 August, Sunday

    Time Temperature Precipitation Wind Pressure Humidity
    00:00 +23°C° 0 mm 2 mps 686 mmHg 50%
    01:00 +23°C° 0 mm 2 mps 686 mmHg 49%
    02:00 +23°C° 0 mm 2 mps 686 mmHg 49%
    03:00 +23°C° 0 mm 2 mps 685 mmHg 48%
    04:00 +23°C° 0 mm 2 mps 686 mmHg 46%
    05:00 +23°C° 0 mm 2 mps 686 mmHg 44%
    06:00 +23°C° 0 mm 2 mps 686 mmHg 43%
    07:00 +25°C° 0 mm 2 mps 686 mmHg 37%
    08:00 +27°C° 0 mm 2 mps 687 mmHg 32%
    09:00 +29°C° 0 mm 3 mps 687 mmHg 27%
    10:00 +30°C° 0 mm 3 mps 687 mmHg 25%
    11:00 +33°C° 0 mm 3 mps 686 mmHg 23%
    12:00 +34°C° 0 mm 4 mps 686 mmHg 21%
    13:00 +34°C° 0 mm 4 mps 686 mmHg 21%
    14:00 +34°C° 0 mm 4 mps 685 mmHg 21%
    15:00 +35°C° 0 mm 4 mps 685 mmHg 21%
    16:00 +33°C° 0 mm 4 mps 685 mmHg 23%
    17:00 +32°C° 0 mm 4 mps 685 mmHg 24%
    18:00 +30°C° 0 mm 4 mps 684 mmHg 26%
    19:00 +28°C° 0 mm 3 mps 684 mmHg 30%
    20:00 +26°C° 0 mm 3 mps 685 mmHg 34%
    21:00 +25°C° 0 mm 2 mps 685 mmHg 37%
    22:00 +24°C° 0 mm 2 mps 685 mmHg 39%
    23:00 +24°C° 0 mm 2 mps 685 mmHg 40%

    Day after tomorrow, 21 August, Monday

    Time Temperature Precipitation Wind Pressure Humidity
    00:00 +23°C° 0 mm 2 mps 685 mmHg 41%
    01:00 +23°C° 0 mm 2 mps 685 mmHg 41%
    02:00 +23°C° 0 mm 2 mps 684 mmHg 42%
    03:00 +23°C° 0 mm 2 mps 684 mmHg 43%
    04:00 +23°C° 0 mm 2 mps 684 mmHg 42%
    05:00 +23°C° 0 mm 1 mps 684 mmHg 42%
    06:00 +23°C° 0 mm 1 mps 685 mmHg 41%
    07:00 +25°C° 0 mm 2 mps 685 mmHg 38%
    08:00 +28°C° 0 mm 2 mps 685 mmHg 34%
    09:00 +30°C° 0 mm 2 mps 685 mmHg 30%
    10:00 +31°C° 0 mm 2 mps 685 mmHg 28%
    11:00 +33°C° 0 mm 3 mps 685 mmHg 27%
    12:00 +35°C° 0 mm 3 mps 685 mmHg 25%
    13:00 +35°C° 0 mm 3 mps 684 mmHg 25%
    14:00 +35°C° 0 mm 3 mps 684 mmHg 25%
    15:00 +35°C° 0 mm 3 mps 683 mmHg 25%
    16:00 +34°C° 0 mm 3 mps 683 mmHg 28%
    17:00 +33°C° 0 mm 3 mps 683 mmHg 31%
    18:00 +31°C° 0 mm 3 mps 683 mmHg 34%
    19:00 +29°C° 0 mm 3 mps 683 mmHg 39%
    20:00 +27°C° 0 mm 2 mps 683 mmHg 45%
    21:00 +26°C° 0 mm 2 mps 683 mmHg 50%
    22:00 +25°C° 0 mm 2 mps 683 mmHg 51%
    23:00 +25°C° 0 mm 2 mps 683 mmHg 51%

    22 August, Tuesday

    Time Temperature Precipitation Wind Pressure Humidity
    00:00 +25°C° 0 mm 2 mps 683 mmHg 52%
    01:00 +24°C° 0 mm 1 mps 683 mmHg 51%
    02:00 +24°C° 0 mm 1 mps 683 mmHg 51%
    03:00 +24°C° 0 mm 1 mps 683 mmHg 50%
    04:00 +24°C° 0 mm 1 mps 683 mmHg 49%
    05:00 +24°C° 0 mm 1 mps 683 mmHg 48%
    06:00 +24°C° 0 mm 1 mps 683 mmHg 46%
    07:00 +26°C° 0 mm 1 mps 684 mmHg 40%
    08:00 +29°C° 0 mm 2 mps 684 mmHg 35%
    09:00 +31°C° 0 mm 2 mps 685 mmHg 29%
    10:00 +32°C° 0 mm 2 mps 685 mmHg 26%
    11:00 +35°C° 0 mm 3 mps 684 mmHg 23%
    12:00 +36°C° 0 mm 3 mps 684 mmHg 20%
    13:00 +37°C° 0 mm 3 mps 684 mmHg 20%
    14:00 +37°C° 0 mm 3 mps 683 mmHg 20%
    15:00 +37°C° 0 mm 3 mps 683 mmHg 20%
    16:00 +36°C° 0 mm 3 mps 683 mmHg 23%
    17:00 +34°C° 0 mm 3 mps 682 mmHg 26%
    18:00 +33°C° 0 mm 3 mps 682 mmHg 29%
    19:00 +30°C° 0 mm 3 mps 682 mmHg 33%
    20:00 +28°C° 0 mm 2 mps 682 mmHg 38%
    21:00 +26°C° 0 mm 2 mps 682 mmHg 43%
    22:00 +26°C° 0 mm 2 mps 683 mmHg 43%
    23:00 +26°C° 0 mm 2 mps 683 mmHg 44%

    23 August, Wednesday

    Time Temperature Precipitation Wind Pressure Humidity
    00:00 +25°C° 0 mm 2 mps 683 mmHg 44%
    01:00 +25°C° 0 mm 2 mps 683 mmHg 44%
    02:00 +25°C° 0 mm 2 mps 683 mmHg 44%
    03:00 +24°C° 0 mm 2 mps 683 mmHg 44%
    04:00 +24°C° 0 mm 2 mps 683 mmHg 43%
    05:00 +24°C° 0 mm 2 mps 683 mmHg 42%
    06:00 +24°C° 0 mm 2 mps 684 mmHg 41%
    07:00 +27°C° 0 mm 2 mps 684 mmHg 37%
    08:00 +29°C° 0 mm 2 mps 685 mmHg 32%
    09:00 +31°C° 0 mm 3 mps 685 mmHg 28%
    10:00 +33°C° 0 mm 3 mps 685 mmHg 26%
    11:00 +35°C° 0 mm 3 mps 685 mmHg 24%
    12:00 +36°C° 0 mm 4 mps 685 mmHg 22%
    13:00 +36°C° 0 mm 4 mps 684 mmHg 23%
    14:00 +36°C° 0 mm 4 mps 684 mmHg 23%
    15:00 +36°C° 0 mm 4 mps 684 mmHg 24%
    16:00 +35°C° 0 mm 4 mps 684 mmHg 26%
    17:00 +34°C° 0 mm 4 mps 684 mmHg 29%
    18:00 +33°C° 0 mm 4 mps 683 mmHg 31%
    19:00 +30°C° 0 mm 3 mps 684 mmHg 35%
    20:00 +28°C° 0 mm 3 mps 684 mmHg 38%
    21:00 +26°C° 0 mm 2 mps 684 mmHg 42%
    22:00 +26°C° 0 mm 2 mps 684 mmHg 42%
    23:00 +25°C° 0 mm 2 mps 684 mmHg 42%

    24 August, Thursday

    Time Temperature Precipitation Wind Pressure Humidity
    00:00 +25°C° 0 mm 2 mps 684 mmHg 42%
    01:00 +24°C° 0 mm 2 mps 684 mmHg 42%
    02:00 +24°C° 0 mm 2 mps 684 mmHg 42%
    03:00 +24°C° 0 mm 2 mps 685 mmHg 42%
    04:00 +24°C° 0 mm 2 mps 685 mmHg 41%
    05:00 +24°C° 0 mm 2 mps 685 mmHg 40%
    06:00 +24°C° 0 mm 2 mps 686 mmHg 39%
    07:00 +26°C° 0 mm 2 mps 686 mmHg 35%
    08:00 +28°C° 0 mm 2 mps 686 mmHg 30%
    09:00 +31°C° 0 mm 3 mps 687 mmHg 25%
    10:00 +33°C° 0 mm 3 mps 687 mmHg 23%
    11:00 +34°C° 0 mm 3 mps 687 mmHg 22%
    12:00 +35°C° 0 mm 4 mps 687 mmHg 20%
    13:00 +35°C° 0 mm 4 mps 686 mmHg 21%
    14:00 +36°C° 0 mm 4 mps 686 mmHg 22%
    15:00 +36°C° 0 mm 4 mps 686 mmHg 22%
    16:00 +34°C° 0 mm 4 mps 685 mmHg 25%
    17:00 +33°C° 0 mm 4 mps 685 mmHg 27%
    18:00 +32°C° 0 mm 4 mps 685 mmHg 29%
    19:00 +29°C° 0 mm 3 mps 685 mmHg 32%
    20:00 +27°C° 0 mm 3 mps 685 mmHg 34%
    21:00 +25°C° 0 mm 2 mps 685 mmHg 37%
    22:00 +25°C° 0 mm 2 mps 685 mmHg 37%
    23:00 +25°C° 0 mm 2 mps 685 mmHg 36%
    Show more